Year,Month,Day,Hour,Minute,Value (Times are PST for insolation in W/m^2)
2013,01,24,00,00,0.00
2013,01,24,00,01,0.00
2013,01,24,00,02,0.00
2013,01,24,00,03,0.00
2013,01,24,00,04,0.00
2013,01,24,00,05,0.00
2013,01,24,00,06,0.00
2013,01,24,00,07,0.00
2013,01,24,00,08,0.00
2013,01,24,00,09,0.00
2013,01,24,00,10,0.00
2013,01,24,00,11,0.00
2013,01,24,00,12,0.00
2013,01,24,00,13,0.00
2013,01,24,00,14,0.00
2013,01,24,00,15,0.00
2013,01,24,00,16,0.00
2013,01,24,00,17,0.00
2013,01,24,00,18,0.00
2013,01,24,00,19,0.00
2013,01,24,00,20,0.00
2013,01,24,00,21,0.00
2013,01,24,00,22,0.00
2013,01,24,00,23,0.00
2013,01,24,00,24,0.00
2013,01,24,00,25,0.00
2013,01,24,00,26,0.00
2013,01,24,00,27,0.00
2013,01,24,00,28,0.00
2013,01,24,00,29,0.00
2013,01,24,00,30,0.00
2013,01,24,00,31,0.00
2013,01,24,00,32,0.00
2013,01,24,00,33,0.00
2013,01,24,00,34,0.00
2013,01,24,00,35,0.00
2013,01,24,00,36,0.00
2013,01,24,00,37,0.00
2013,01,24,00,38,0.00
2013,01,24,00,39,0.00
2013,01,24,00,40,0.00
2013,01,24,00,41,0.00
2013,01,24,00,42,0.00
2013,01,24,00,43,0.00
2013,01,24,00,44,0.00
2013,01,24,00,45,0.00
2013,01,24,00,46,0.00
2013,01,24,00,47,0.00
2013,01,24,00,48,0.00
2013,01,24,00,49,0.00
2013,01,24,00,50,0.00
2013,01,24,00,51,0.00
2013,01,24,00,52,0.00
2013,01,24,00,53,0.00
2013,01,24,00,54,0.00
2013,01,24,00,55,0.00
2013,01,24,00,56,0.00
2013,01,24,00,57,0.00
2013,01,24,00,58,0.00
2013,01,24,00,59,0.00
2013,01,24,01,00,0.00
2013,01,24,01,01,0.00
2013,01,24,01,02,0.00
2013,01,24,01,03,0.00
2013,01,24,01,04,0.00
2013,01,24,01,05,0.00
2013,01,24,01,06,0.00
2013,01,24,01,07,0.00
2013,01,24,01,08,0.00
2013,01,24,01,09,0.00
2013,01,24,01,10,0.00
2013,01,24,01,11,0.00
2013,01,24,01,12,0.00
2013,01,24,01,13,0.00
2013,01,24,01,14,0.00
2013,01,24,01,15,0.00
2013,01,24,01,16,0.00
2013,01,24,01,17,0.00
2013,01,24,01,18,0.00
2013,01,24,01,19,0.00
2013,01,24,01,20,0.00
2013,01,24,01,21,0.00
2013,01,24,01,22,0.00
2013,01,24,01,23,0.00
2013,01,24,01,24,0.00
2013,01,24,01,25,0.00
2013,01,24,01,26,0.00
2013,01,24,01,27,0.00
2013,01,24,01,28,0.00
2013,01,24,01,29,0.00
2013,01,24,01,30,0.00
2013,01,24,01,31,0.00
2013,01,24,01,32,0.00
2013,01,24,01,33,0.00
2013,01,24,01,34,0.00
2013,01,24,01,35,0.00
2013,01,24,01,36,0.00
2013,01,24,01,37,0.00
2013,01,24,01,38,0.00
2013,01,24,01,39,0.00
2013,01,24,01,40,0.00
2013,01,24,01,41,0.00
2013,01,24,01,42,0.00
2013,01,24,01,43,0.00
2013,01,24,01,44,0.00
2013,01,24,01,45,0.00
2013,01,24,01,46,0.00
2013,01,24,01,47,0.00
2013,01,24,01,48,0.00
2013,01,24,01,49,0.00
2013,01,24,01,50,0.00
2013,01,24,01,51,0.00
2013,01,24,01,52,0.00
2013,01,24,01,53,0.00
2013,01,24,01,54,0.00
2013,01,24,01,55,0.00
2013,01,24,01,56,0.00
2013,01,24,01,57,0.00
2013,01,24,01,58,0.00
2013,01,24,01,59,0.00
2013,01,24,02,00,0.00
2013,01,24,02,01,0.00
2013,01,24,02,02,0.00
2013,01,24,02,03,0.00
2013,01,24,02,04,0.00
2013,01,24,02,05,0.00
2013,01,24,02,06,0.00
2013,01,24,02,07,0.00
2013,01,24,02,08,0.00
2013,01,24,02,09,0.00
2013,01,24,02,10,0.00
2013,01,24,02,11,0.00
2013,01,24,02,12,0.00
2013,01,24,02,13,0.00
2013,01,24,02,14,0.00
2013,01,24,02,15,0.00
2013,01,24,02,16,0.00
2013,01,24,02,17,0.00
2013,01,24,02,18,0.00
2013,01,24,02,19,0.00
2013,01,24,02,20,0.00
2013,01,24,02,21,0.00
2013,01,24,02,22,0.00
2013,01,24,02,23,0.00
2013,01,24,02,24,0.00
2013,01,24,02,25,0.00
2013,01,24,02,26,0.00
2013,01,24,02,27,0.00
2013,01,24,02,28,0.00
2013,01,24,02,29,0.00
2013,01,24,02,30,0.00
2013,01,24,02,31,0.00
2013,01,24,02,32,0.00
2013,01,24,02,33,0.00
2013,01,24,02,34,0.00
2013,01,24,02,35,0.00
2013,01,24,02,36,0.00
2013,01,24,02,37,0.00
2013,01,24,02,38,0.00
2013,01,24,02,39,0.00
2013,01,24,02,40,0.00
2013,01,24,02,41,0.00
2013,01,24,02,42,0.00
2013,01,24,02,43,0.00
2013,01,24,02,44,0.00
2013,01,24,02,45,0.00
2013,01,24,02,46,0.00
2013,01,24,02,47,0.00
2013,01,24,02,48,0.00
2013,01,24,02,49,0.00
2013,01,24,02,50,0.00
2013,01,24,02,51,0.00
2013,01,24,02,52,0.00
2013,01,24,02,53,0.00
2013,01,24,02,54,0.00
2013,01,24,02,55,0.00
2013,01,24,02,56,0.00
2013,01,24,02,57,0.00
2013,01,24,02,58,0.00
2013,01,24,02,59,0.00
2013,01,24,03,00,0.00
2013,01,24,03,01,0.00
2013,01,24,03,02,0.00
2013,01,24,03,03,0.00
2013,01,24,03,04,0.00
2013,01,24,03,05,0.00
2013,01,24,03,06,0.00
2013,01,24,03,07,0.00
2013,01,24,03,08,0.00
2013,01,24,03,09,0.00
2013,01,24,03,10,0.00
2013,01,24,03,11,0.00
2013,01,24,03,12,0.00
2013,01,24,03,13,0.00
2013,01,24,03,14,0.00
2013,01,24,03,15,0.00
2013,01,24,03,16,0.00
2013,01,24,03,17,0.00
2013,01,24,03,18,0.00
2013,01,24,03,19,0.00
2013,01,24,03,20,0.00
2013,01,24,03,21,0.00
2013,01,24,03,22,0.00
2013,01,24,03,23,0.00
2013,01,24,03,24,0.00
2013,01,24,03,25,0.00
2013,01,24,03,26,0.00
2013,01,24,03,27,0.00
2013,01,24,03,28,0.00
2013,01,24,03,29,0.00
2013,01,24,03,30,0.00
2013,01,24,03,31,0.00
2013,01,24,03,32,0.00
2013,01,24,03,33,0.00
2013,01,24,03,34,0.00
2013,01,24,03,35,0.00
2013,01,24,03,36,0.00
2013,01,24,03,37,0.00
2013,01,24,03,38,0.00
2013,01,24,03,39,0.00
2013,01,24,03,40,0.00
2013,01,24,03,41,0.00
2013,01,24,03,42,0.00
2013,01,24,03,43,0.00
2013,01,24,03,44,0.00
2013,01,24,03,45,0.00
2013,01,24,03,46,0.00
2013,01,24,03,47,0.00
2013,01,24,03,48,0.00
2013,01,24,03,49,0.00
2013,01,24,03,50,0.00
2013,01,24,03,51,0.00
2013,01,24,03,52,0.00
2013,01,24,03,53,0.00
2013,01,24,03,54,0.00
2013,01,24,03,55,0.00
2013,01,24,03,56,0.00
2013,01,24,03,57,0.00
2013,01,24,03,58,0.00
2013,01,24,03,59,0.00
2013,01,24,04,00,0.00
2013,01,24,04,01,0.00
2013,01,24,04,02,0.00
2013,01,24,04,03,0.00
2013,01,24,04,04,0.00
2013,01,24,04,05,0.00
2013,01,24,04,06,0.00
2013,01,24,04,07,0.00
2013,01,24,04,08,0.00
2013,01,24,04,09,0.00
2013,01,24,04,10,0.00
2013,01,24,04,11,0.00
2013,01,24,04,12,0.00
2013,01,24,04,13,0.00
2013,01,24,04,14,0.00
2013,01,24,04,15,0.00
2013,01,24,04,16,0.00
2013,01,24,04,17,0.00
2013,01,24,04,18,0.00
2013,01,24,04,19,0.00
2013,01,24,04,20,0.00
2013,01,24,04,21,0.00
2013,01,24,04,22,0.00
2013,01,24,04,23,0.00
2013,01,24,04,24,0.00
2013,01,24,04,25,0.00
2013,01,24,04,26,0.00
2013,01,24,04,27,0.00
2013,01,24,04,28,0.00
2013,01,24,04,29,0.00
2013,01,24,04,30,0.00
2013,01,24,04,31,0.00
2013,01,24,04,32,0.00
2013,01,24,04,33,0.00
2013,01,24,04,34,0.00
2013,01,24,04,35,0.00
2013,01,24,04,36,0.00
2013,01,24,04,37,0.00
2013,01,24,04,38,0.00
2013,01,24,04,39,0.00
2013,01,24,04,40,0.00
2013,01,24,04,41,0.00
2013,01,24,04,42,0.00
2013,01,24,04,43,0.00
2013,01,24,04,44,0.00
2013,01,24,04,45,0.00
2013,01,24,04,46,0.00
2013,01,24,04,47,0.00
2013,01,24,04,48,0.00
2013,01,24,04,49,0.00
2013,01,24,04,50,0.00
2013,01,24,04,51,0.00
2013,01,24,04,52,0.00
2013,01,24,04,53,0.00
2013,01,24,04,54,0.00
2013,01,24,04,55,0.00
2013,01,24,04,56,0.00
2013,01,24,04,57,0.00
2013,01,24,04,58,0.00
2013,01,24,04,59,0.00
2013,01,24,05,00,0.00
2013,01,24,05,01,0.00
2013,01,24,05,02,0.00
2013,01,24,05,03,0.00
2013,01,24,05,04,0.00
2013,01,24,05,05,0.00
2013,01,24,05,06,0.00
2013,01,24,05,07,0.00
2013,01,24,05,08,0.00
2013,01,24,05,09,0.00
2013,01,24,05,10,0.00
2013,01,24,05,11,0.00
2013,01,24,05,12,0.00
2013,01,24,05,13,0.00
2013,01,24,05,14,0.00
2013,01,24,05,15,0.00
2013,01,24,05,16,0.00
2013,01,24,05,17,0.00
2013,01,24,05,18,0.00
2013,01,24,05,19,0.00
2013,01,24,05,20,0.00
2013,01,24,05,21,0.00
2013,01,24,05,22,0.00
2013,01,24,05,23,0.00
2013,01,24,05,24,0.00
2013,01,24,05,25,0.00
2013,01,24,05,26,0.00
2013,01,24,05,27,0.00
2013,01,24,05,28,0.00
2013,01,24,05,29,0.00
2013,01,24,05,30,0.00
2013,01,24,05,31,0.00
2013,01,24,05,32,0.00
2013,01,24,05,33,0.00
2013,01,24,05,34,0.00
2013,01,24,05,35,0.00
2013,01,24,05,36,0.00
2013,01,24,05,37,0.00
2013,01,24,05,38,0.00
2013,01,24,05,39,0.00
2013,01,24,05,40,0.00
2013,01,24,05,41,0.00
2013,01,24,05,42,0.00
2013,01,24,05,43,0.00
2013,01,24,05,44,0.00
2013,01,24,05,45,0.00
2013,01,24,05,46,0.00
2013,01,24,05,47,0.00
2013,01,24,05,48,0.00
2013,01,24,05,49,0.00
2013,01,24,05,50,0.00
2013,01,24,05,51,0.00
2013,01,24,05,52,0.00
2013,01,24,05,53,0.00
2013,01,24,05,54,0.00
2013,01,24,05,55,0.00
2013,01,24,05,56,0.00
2013,01,24,05,57,0.00
2013,01,24,05,58,0.00
2013,01,24,05,59,0.00
2013,01,24,06,00,0.00
2013,01,24,06,01,0.00
2013,01,24,06,02,0.00
2013,01,24,06,03,0.00
2013,01,24,06,04,0.00
2013,01,24,06,05,0.00
2013,01,24,06,06,0.00
2013,01,24,06,07,0.00
2013,01,24,06,08,0.00
2013,01,24,06,09,0.00
2013,01,24,06,10,0.00
2013,01,24,06,11,0.00
2013,01,24,06,12,0.00
2013,01,24,06,13,0.00
2013,01,24,06,14,0.00
2013,01,24,06,15,0.00
2013,01,24,06,16,0.00
2013,01,24,06,17,0.00
2013,01,24,06,18,0.00
2013,01,24,06,19,0.00
2013,01,24,06,20,0.00
2013,01,24,06,21,0.00
2013,01,24,06,22,0.00
2013,01,24,06,23,0.00
2013,01,24,06,24,0.00
2013,01,24,06,25,0.00
2013,01,24,06,26,0.00
2013,01,24,06,27,0.00
2013,01,24,06,28,0.00
2013,01,24,06,29,0.00
2013,01,24,06,30,0.00
2013,01,24,06,31,0.00
2013,01,24,06,32,0.00
2013,01,24,06,33,0.00
2013,01,24,06,34,0.00
2013,01,24,06,35,0.00
2013,01,24,06,36,0.00
2013,01,24,06,37,0.00
2013,01,24,06,38,0.00
2013,01,24,06,39,0.00
2013,01,24,06,40,0.00
2013,01,24,06,41,0.00
2013,01,24,06,42,0.00
2013,01,24,06,43,0.00
2013,01,24,06,44,0.00
2013,01,24,06,45,0.00
2013,01,24,06,46,0.00
2013,01,24,06,47,0.00
2013,01,24,06,48,0.00
2013,01,24,06,49,0.00
2013,01,24,06,50,0.00
2013,01,24,06,51,0.00
2013,01,24,06,52,0.00
2013,01,24,06,53,0.00
2013,01,24,06,54,0.00
2013,01,24,06,55,0.00
2013,01,24,06,56,0.00
2013,01,24,06,57,0.00
2013,01,24,06,58,0.00
2013,01,24,06,59,0.00
2013,01,24,07,00,0.00
2013,01,24,07,01,0.00
2013,01,24,07,02,0.00
2013,01,24,07,03,0.00
2013,01,24,07,04,0.00
2013,01,24,07,05,0.00
2013,01,24,07,06,0.00
2013,01,24,07,07,0.00
2013,01,24,07,08,0.00
2013,01,24,07,09,0.00
2013,01,24,07,10,0.00
2013,01,24,07,11,0.00
2013,01,24,07,12,0.00
2013,01,24,07,13,0.00
2013,01,24,07,14,0.00
2013,01,24,07,15,0.00
2013,01,24,07,16,0.00
2013,01,24,07,17,0.00
2013,01,24,07,18,0.00
2013,01,24,07,19,0.00
2013,01,24,07,20,0.00
2013,01,24,07,21,0.00
2013,01,24,07,22,0.00
2013,01,24,07,23,0.00
2013,01,24,07,24,0.00
2013,01,24,07,25,0.00
2013,01,24,07,26,0.00
2013,01,24,07,27,0.00
2013,01,24,07,28,0.00
2013,01,24,07,29,0.00
2013,01,24,07,30,0.00
2013,01,24,07,31,0.00
2013,01,24,07,32,0.00
2013,01,24,07,33,0.00
2013,01,24,07,34,0.00
2013,01,24,07,35,0.00
2013,01,24,07,36,0.00
2013,01,24,07,37,0.00
2013,01,24,07,38,0.00
2013,01,24,07,39,0.00
2013,01,24,07,40,0.00
2013,01,24,07,41,0.00
2013,01,24,07,42,0.00
2013,01,24,07,43,0.00
2013,01,24,07,44,0.00
2013,01,24,07,45,0.00
2013,01,24,07,46,0.00
2013,01,24,07,47,0.00
2013,01,24,07,48,0.00
2013,01,24,07,49,0.00
2013,01,24,07,50,0.00
2013,01,24,07,51,0.00
2013,01,24,07,52,0.00
2013,01,24,07,53,0.00
2013,01,24,07,54,0.00
2013,01,24,07,55,0.00
2013,01,24,07,56,0.00
2013,01,24,07,57,0.00
2013,01,24,07,58,0.00
2013,01,24,07,59,0.00
2013,01,24,08,00,0.00
2013,01,24,08,01,0.00
2013,01,24,08,02,0.00
2013,01,24,08,03,0.00
2013,01,24,08,04,0.00
2013,01,24,08,05,0.00
2013,01,24,08,06,0.00
2013,01,24,08,07,0.00
2013,01,24,08,08,0.00
2013,01,24,08,09,0.00
2013,01,24,08,10,0.00
2013,01,24,08,11,0.00
2013,01,24,08,12,0.00
2013,01,24,08,13,0.00
2013,01,24,08,14,0.00
2013,01,24,08,15,0.00
2013,01,24,08,16,0.00
2013,01,24,08,17,0.00
2013,01,24,08,18,0.90
2013,01,24,08,19,5.00
2013,01,24,08,20,5.70
2013,01,24,08,21,7.00
2013,01,24,08,22,7.00
2013,01,24,08,23,7.00
2013,01,24,08,24,7.00
2013,01,24,08,25,7.00
2013,01,24,08,26,9.00
2013,01,24,08,27,9.00
2013,01,24,08,28,9.00
2013,01,24,08,29,9.00
2013,01,24,08,30,9.00
2013,01,24,08,31,9.00
2013,01,24,08,32,9.00
2013,01,24,08,33,9.00
2013,01,24,08,34,9.00
2013,01,24,08,35,9.00
2013,01,24,08,36,9.00
2013,01,24,08,37,9.00
2013,01,24,08,38,9.00
2013,01,24,08,39,9.00
2013,01,24,08,40,10.40
2013,01,24,08,41,11.00
2013,01,24,08,42,11.90
2013,01,24,08,43,12.00
2013,01,24,08,44,12.00
2013,01,24,08,45,12.00
2013,01,24,08,46,12.00
2013,01,24,08,47,13.00
2013,01,24,08,48,14.00
2013,01,24,08,49,15.40
2013,01,24,08,50,16.00
2013,01,24,08,51,14.20
2013,01,24,08,52,13.70
2013,01,24,08,53,12.00
2013,01,24,08,54,12.00
2013,01,24,08,55,12.90
2013,01,24,08,56,14.00
2013,01,24,08,57,14.00
2013,01,24,08,58,12.50
2013,01,24,08,59,12.00
2013,01,24,09,00,12.00
2013,01,24,09,01,12.00
2013,01,24,09,02,11.70
2013,01,24,09,03,11.00
2013,01,24,09,04,11.00
2013,01,24,09,05,11.00
2013,01,24,09,06,11.70
2013,01,24,09,07,12.00
2013,01,24,09,08,12.00
2013,01,24,09,09,12.00
2013,01,24,09,10,12.00
2013,01,24,09,11,12.00
2013,01,24,09,12,11.60
2013,01,24,09,13,11.00
2013,01,24,09,14,11.00
2013,01,24,09,15,11.00
2013,01,24,09,16,11.80
2013,01,24,09,17,12.00
2013,01,24,09,18,12.00
2013,01,24,09,19,12.00
2013,01,24,09,20,12.00
2013,01,24,09,21,11.50
2013,01,24,09,22,11.50
2013,01,24,09,23,12.00
2013,01,24,09,24,12.00
2013,01,24,09,25,12.00
2013,01,24,09,26,12.00
2013,01,24,09,27,12.00
2013,01,24,09,28,12.00
2013,01,24,09,29,12.00
2013,01,24,09,30,12.00
2013,01,24,09,31,12.00
2013,01,24,09,32,13.40
2013,01,24,09,33,14.00
2013,01,24,09,34,15.90
2013,01,24,09,35,16.30
2013,01,24,09,36,18.00
2013,01,24,09,37,18.30
2013,01,24,09,38,19.00
2013,01,24,09,39,19.00
2013,01,24,09,40,19.00
2013,01,24,09,41,19.00
2013,01,24,09,42,20.70
2013,01,24,09,43,21.10
2013,01,24,09,44,23.00
2013,01,24,09,45,23.50
2013,01,24,09,46,25.00
2013,01,24,09,47,25.00
2013,01,24,09,48,25.00
2013,01,24,09,49,25.00
2013,01,24,09,50,25.80
2013,01,24,09,51,26.00
2013,01,24,09,52,26.00
2013,01,24,09,53,26.00
2013,01,24,09,54,26.00
2013,01,24,09,55,26.80
2013,01,24,09,56,30.10
2013,01,24,09,57,32.00
2013,01,24,09,58,32.80
2013,01,24,09,59,33.00
2013,01,24,10,00,33.00
2013,01,24,10,01,33.30
2013,01,24,10,02,35.50
2013,01,24,10,03,37.70
2013,01,24,10,04,39.50
2013,01,24,10,05,40.00
2013,01,24,10,06,40.00
2013,01,24,10,07,41.60
2013,01,24,10,08,43.70
2013,01,24,10,09,43.80
2013,01,24,10,10,42.40
2013,01,24,10,11,44.00
2013,01,24,10,12,43.10
2013,01,24,10,13,42.00
2013,01,24,10,14,42.00
2013,01,24,10,15,42.00
2013,01,24,10,16,42.00
2013,01,24,10,17,42.00
2013,01,24,10,18,42.00
2013,01,24,10,19,41.50
2013,01,24,10,20,39.70
2013,01,24,10,21,37.40
2013,01,24,10,22,35.00
2013,01,24,10,23,35.00
2013,01,24,10,24,36.50
2013,01,24,10,25,37.00
2013,01,24,10,26,37.20
2013,01,24,10,27,39.00
2013,01,24,10,28,39.30
2013,01,24,10,29,40.00
2013,01,24,10,30,40.90
2013,01,24,10,31,43.20
2013,01,24,10,32,46.10
2013,01,24,10,33,47.00
2013,01,24,10,34,47.00
2013,01,24,10,35,46.90
2013,01,24,10,36,46.00
2013,01,24,10,37,46.30
2013,01,24,10,38,47.00
2013,01,24,10,39,47.00
2013,01,24,10,40,47.00
2013,01,24,10,41,47.00
2013,01,24,10,42,47.00
2013,01,24,10,43,47.00
2013,01,24,10,44,47.00
2013,01,24,10,45,47.00
2013,01,24,10,46,47.00
2013,01,24,10,47,47.00
2013,01,24,10,48,46.40
2013,01,24,10,49,44.60
2013,01,24,10,50,44.00
2013,01,24,10,51,44.00
2013,01,24,10,52,44.00
2013,01,24,10,53,44.00
2013,01,24,10,54,44.00
2013,01,24,10,55,44.00
2013,01,24,10,56,44.00
2013,01,24,10,57,44.00
2013,01,24,10,58,42.50
2013,01,24,10,59,42.00
2013,01,24,11,00,41.90
2013,01,24,11,01,40.00
2013,01,24,11,02,40.00
2013,01,24,11,03,39.70
2013,01,24,11,04,39.00
2013,01,24,11,05,39.50
2013,01,24,11,06,41.30
2013,01,24,11,07,42.00
2013,01,24,11,08,40.30
2013,01,24,11,09,40.00
2013,01,24,11,10,39.80
2013,01,24,11,11,39.00
2013,01,24,11,12,39.00
2013,01,24,11,13,39.00
2013,01,24,11,14,37.90
2013,01,24,11,15,37.00
2013,01,24,11,16,37.00
2013,01,24,11,17,37.00
2013,01,24,11,18,37.00
2013,01,24,11,19,37.50
2013,01,24,11,20,39.00
2013,01,24,11,21,39.00
2013,01,24,11,22,39.00
2013,01,24,11,23,39.60
2013,01,24,11,24,40.00
2013,01,24,11,25,40.00
2013,01,24,11,26,40.00
2013,01,24,11,27,40.00
2013,01,24,11,28,39.70
2013,01,24,11,29,39.30
2013,01,24,11,30,40.00
2013,01,24,11,31,40.00
2013,01,24,11,32,40.00
2013,01,24,11,33,40.00
2013,01,24,11,34,40.00
2013,01,24,11,35,40.00
2013,01,24,11,36,40.00
2013,01,24,11,37,39.70
2013,01,24,11,38,39.00
2013,01,24,11,39,38.00
2013,01,24,11,40,37.00
2013,01,24,11,41,37.00
2013,01,24,11,42,38.60
2013,01,24,11,43,39.00
2013,01,24,11,44,39.00
2013,01,24,11,45,39.00
2013,01,24,11,46,39.30
2013,01,24,11,47,40.80
2013,01,24,11,48,42.00
2013,01,24,11,49,42.00
2013,01,24,11,50,42.00
2013,01,24,11,51,42.00
2013,01,24,11,52,42.10
2013,01,24,11,53,44.00
2013,01,24,11,54,44.50
2013,01,24,11,55,45.30
2013,01,24,11,56,44.00
2013,01,24,11,57,42.80
2013,01,24,11,58,42.00
2013,01,24,11,59,40.40
2013,01,24,12,00,40.00
2013,01,24,12,01,39.90
2013,01,24,12,02,39.00
2013,01,24,12,03,39.00
2013,01,24,12,04,39.00
2013,01,24,12,05,39.00
2013,01,24,12,06,37.70
2013,01,24,12,07,37.00
2013,01,24,12,08,37.00
2013,01,24,12,09,36.90
2013,01,24,12,10,35.00
2013,01,24,12,11,34.50
2013,01,24,12,12,33.00
2013,01,24,12,13,32.50
2013,01,24,12,14,32.00
2013,01,24,12,15,30.70
2013,01,24,12,16,30.00
2013,01,24,12,17,30.00
2013,01,24,12,18,29.80
2013,01,24,12,19,28.00
2013,01,24,12,20,28.00
2013,01,24,12,21,28.00
2013,01,24,12,22,28.00
2013,01,24,12,23,28.00
2013,01,24,12,24,29.50
2013,01,24,12,25,30.00
2013,01,24,12,26,30.00
2013,01,24,12,27,30.00
2013,01,24,12,28,30.00
2013,01,24,12,29,30.00
2013,01,24,12,30,29.10
2013,01,24,12,31,28.00
2013,01,24,12,32,28.00
2013,01,24,12,33,28.00
2013,01,24,12,34,26.30
2013,01,24,12,35,26.00
2013,01,24,12,36,26.00
2013,01,24,12,37,25.70
2013,01,24,12,38,25.00
2013,01,24,12,39,25.00
2013,01,24,12,40,25.00
2013,01,24,12,41,25.70
2013,01,24,12,42,25.20
2013,01,24,12,43,25.00
2013,01,24,12,44,25.00
2013,01,24,12,45,25.00
2013,01,24,12,46,25.00
2013,01,24,12,47,25.40
2013,01,24,12,48,26.00
2013,01,24,12,49,26.00
2013,01,24,12,50,26.00
2013,01,24,12,51,27.70
2013,01,24,12,52,28.00
2013,01,24,12,53,28.30
2013,01,24,12,54,30.00
2013,01,24,12,55,30.00
2013,01,24,12,56,31.30
2013,01,24,12,57,33.00
2013,01,24,12,58,33.00
2013,01,24,12,59,32.20
2013,01,24,13,00,32.00
2013,01,24,13,01,30.00
2013,01,24,13,02,30.00
2013,01,24,13,03,30.00
2013,01,24,13,04,30.00
2013,01,24,13,05,30.00
2013,01,24,13,06,30.00
2013,01,24,13,07,30.00
2013,01,24,13,08,30.00
2013,01,24,13,09,30.00
2013,01,24,13,10,28.00
2013,01,24,13,11,28.50
2013,01,24,13,12,30.70
2013,01,24,13,13,32.50
2013,01,24,13,14,33.00
2013,01,24,13,15,33.00
2013,01,24,13,16,32.20
2013,01,24,13,17,32.90
2013,01,24,13,18,33.00
2013,01,24,13,19,33.40
2013,01,24,13,20,35.60
2013,01,24,13,21,37.70
2013,01,24,13,22,39.50
2013,01,24,13,23,40.00
2013,01,24,13,24,41.40
2013,01,24,13,25,43.60
2013,01,24,13,26,44.00
2013,01,24,13,27,45.90
2013,01,24,13,28,45.60
2013,01,24,13,29,44.00
2013,01,24,13,30,43.00
2013,01,24,13,31,42.00
2013,01,24,13,32,42.00
2013,01,24,13,33,42.00
2013,01,24,13,34,42.00
2013,01,24,13,35,42.00
2013,01,24,13,36,42.00
2013,01,24,13,37,42.00
2013,01,24,13,38,41.30
2013,01,24,13,39,39.50
2013,01,24,13,40,39.00
2013,01,24,13,41,39.00
2013,01,24,13,42,39.80
2013,01,24,13,43,40.00
2013,01,24,13,44,39.00
2013,01,24,13,45,38.60
2013,01,24,13,46,35.80
2013,01,24,13,47,33.00
2013,01,24,13,48,33.00
2013,01,24,13,49,34.20
2013,01,24,13,50,35.00
2013,01,24,13,51,35.00
2013,01,24,13,52,33.10
2013,01,24,13,53,31.70
2013,01,24,13,54,30.00
2013,01,24,13,55,30.00
2013,01,24,13,56,29.10
2013,01,24,13,57,28.00
2013,01,24,13,58,28.00
2013,01,24,13,59,28.00
2013,01,24,14,00,28.00
2013,01,24,14,01,28.00
2013,01,24,14,02,28.00
2013,01,24,14,03,28.00
2013,01,24,14,04,28.00
2013,01,24,14,05,28.00
2013,01,24,14,06,26.80
2013,01,24,14,07,25.30
2013,01,24,14,08,25.00
2013,01,24,14,09,25.90
2013,01,24,14,10,25.90
2013,01,24,14,11,25.00
2013,01,24,14,12,25.00
2013,01,24,14,13,25.00
2013,01,24,14,14,25.00
2013,01,24,14,15,23.70
2013,01,24,14,16,21.50
2013,01,24,14,17,21.00
2013,01,24,14,18,21.00
2013,01,24,14,19,21.00
2013,01,24,14,20,21.50
2013,01,24,14,21,23.70
2013,01,24,14,22,24.00
2013,01,24,14,23,23.00
2013,01,24,14,24,23.00
2013,01,24,14,25,23.00
2013,01,24,14,26,23.00
2013,01,24,14,27,21.00
2013,01,24,14,28,21.00
2013,01,24,14,29,21.00
2013,01,24,14,30,22.60
2013,01,24,14,31,25.00
2013,01,24,14,32,25.60
2013,01,24,14,33,26.00
2013,01,24,14,34,26.00
2013,01,24,14,35,27.80
2013,01,24,14,36,28.30
2013,01,24,14,37,30.00
2013,01,24,14,38,30.70
2013,01,24,14,39,32.00
2013,01,24,14,40,32.50
2013,01,24,14,41,33.00
2013,01,24,14,42,33.00
2013,01,24,14,43,34.70
2013,01,24,14,44,35.30
2013,01,24,14,45,39.20
2013,01,24,14,46,41.10
2013,01,24,14,47,45.20
2013,01,24,14,48,48.00
2013,01,24,14,49,51.30
2013,01,24,14,50,53.70
2013,01,24,14,51,55.60
2013,01,24,14,52,56.00
2013,01,24,14,53,55.30
2013,01,24,14,54,49.80
2013,01,24,14,55,44.70
2013,01,24,14,56,41.10
2013,01,24,14,57,41.10
2013,01,24,14,58,45.20
2013,01,24,14,59,49.90
2013,01,24,15,00,52.70
2013,01,24,15,01,50.90
2013,01,24,15,02,46.80
2013,01,24,15,03,44.90
2013,01,24,15,04,41.30
2013,01,24,15,05,39.50
2013,01,24,15,06,39.00
2013,01,24,15,07,37.60
2013,01,24,15,08,38.60
2013,01,24,15,09,39.90
2013,01,24,15,10,40.00
2013,01,24,15,11,39.80
2013,01,24,15,12,39.30
2013,01,24,15,13,40.00
2013,01,24,15,14,39.50
2013,01,24,15,15,36.60
2013,01,24,15,16,33.50
2013,01,24,15,17,32.20
2013,01,24,15,18,30.00
2013,01,24,15,19,28.00
2013,01,24,15,20,28.50
2013,01,24,15,21,30.70
2013,01,24,15,22,32.50
2013,01,24,15,23,33.00
2013,01,24,15,24,33.00
2013,01,24,15,25,33.00
2013,01,24,15,26,32.10
2013,01,24,15,27,31.80
2013,01,24,15,28,29.60
2013,01,24,15,29,27.50
2013,01,24,15,30,25.60
2013,01,24,15,31,24.00
2013,01,24,15,32,23.00
2013,01,24,15,33,23.00
2013,01,24,15,34,21.40
2013,01,24,15,35,21.00
2013,01,24,15,36,19.30
2013,01,24,15,37,21.00
2013,01,24,15,38,21.00
2013,01,24,15,39,20.10
2013,01,24,15,40,18.50
2013,01,24,15,41,16.70
2013,01,24,15,42,16.00
2013,01,24,15,43,16.00
2013,01,24,15,44,14.10
2013,01,24,15,45,14.00
2013,01,24,15,46,14.00
2013,01,24,15,47,14.00
2013,01,24,15,48,14.00
2013,01,24,15,49,15.20
2013,01,24,15,50,16.00
2013,01,24,15,51,16.00
2013,01,24,15,52,14.30
2013,01,24,15,53,14.00
2013,01,24,15,54,14.00
2013,01,24,15,55,13.40
2013,01,24,15,56,12.00
2013,01,24,15,57,12.00
2013,01,24,15,58,12.00
2013,01,24,15,59,12.00
2013,01,24,16,00,12.00
2013,01,24,16,01,12.00
2013,01,24,16,02,11.90
2013,01,24,16,03,11.00
2013,01,24,16,04,11.30
2013,01,24,16,05,12.00
2013,01,24,16,06,12.00
2013,01,24,16,07,12.00
2013,01,24,16,08,11.20
2013,01,24,16,09,9.30
2013,01,24,16,10,7.00
2013,01,24,16,11,7.00
2013,01,24,16,12,7.00
2013,01,24,16,13,7.00
2013,01,24,16,14,7.00
2013,01,24,16,15,7.00
2013,01,24,16,16,8.40
2013,01,24,16,17,9.00
2013,01,24,16,18,9.00
2013,01,24,16,19,9.00
2013,01,24,16,20,9.00
2013,01,24,16,21,9.00
2013,01,24,16,22,9.00
2013,01,24,16,23,9.00
2013,01,24,16,24,9.00
2013,01,24,16,25,9.00
2013,01,24,16,26,9.00
2013,01,24,16,27,8.90
2013,01,24,16,28,7.00
2013,01,24,16,29,7.00
2013,01,24,16,30,7.00
2013,01,24,16,31,7.00
2013,01,24,16,32,7.00
2013,01,24,16,33,7.00
2013,01,24,16,34,7.00
2013,01,24,16,35,5.30
2013,01,24,16,36,5.00
2013,01,24,16,37,5.00
2013,01,24,16,38,5.00
2013,01,24,16,39,5.00
2013,01,24,16,40,5.00
2013,01,24,16,41,5.00
2013,01,24,16,42,5.00
2013,01,24,16,43,0.70
2013,01,24,16,44,0.00
2013,01,24,16,45,0.00
2013,01,24,16,46,0.00
2013,01,24,16,47,0.00
2013,01,24,16,48,2.30
2013,01,24,16,49,5.00
2013,01,24,16,50,1.70
2013,01,24,16,51,0.00
2013,01,24,16,52,0.00
2013,01,24,16,53,0.00
2013,01,24,16,54,0.00
2013,01,24,16,55,0.00
2013,01,24,16,56,0.00
2013,01,24,16,57,0.00
2013,01,24,16,58,0.00
2013,01,24,16,59,0.00
2013,01,24,17,00,0.00
2013,01,24,17,01,0.00
2013,01,24,17,02,0.00
2013,01,24,17,03,0.00
2013,01,24,17,04,0.00
2013,01,24,17,05,0.00
2013,01,24,17,06,0.00
2013,01,24,17,07,0.00
2013,01,24,17,08,0.00
2013,01,24,17,09,0.00
2013,01,24,17,10,0.00
2013,01,24,17,11,0.00
2013,01,24,17,12,0.00
2013,01,24,17,13,0.00
2013,01,24,17,14,0.00
2013,01,24,17,15,0.00
2013,01,24,17,16,0.00
2013,01,24,17,17,0.00
2013,01,24,17,18,0.00
2013,01,24,17,19,0.00
2013,01,24,17,20,0.00
2013,01,24,17,21,0.00
2013,01,24,17,22,0.00
2013,01,24,17,23,0.00
2013,01,24,17,24,0.00
2013,01,24,17,25,0.00
2013,01,24,17,26,0.00
2013,01,24,17,27,0.00
2013,01,24,17,28,0.00
2013,01,24,17,29,0.00
2013,01,24,17,30,0.00
2013,01,24,17,31,0.00
2013,01,24,17,32,0.00
2013,01,24,17,33,0.00
2013,01,24,17,34,0.00
2013,01,24,17,35,0.00
2013,01,24,17,36,0.00
2013,01,24,17,37,0.00
2013,01,24,17,38,0.00
2013,01,24,17,39,0.00
2013,01,24,17,40,0.00
2013,01,24,17,41,0.00
2013,01,24,17,42,0.00
2013,01,24,17,43,0.00
2013,01,24,17,44,0.00
2013,01,24,17,45,0.00
2013,01,24,17,46,0.00